Tracking 30986 objects as of 9-Jul-2025
HD Live streaming from Space Station
objects crossing your sky now

O3B FM19

Track O3B FM19 now!
10-day predictions
O3B FM19 is classified as:


NORAD ID: 44113
Int'l Code: 2019-020B
Perigee: 8,068.3 km
Apogee: 8,077.8 km
Inclination: 0.0 °
Period: 287.9 minutes
Semi major axis: 14444 km
RCS: Unknown
Launch date: April 4, 2019
Source: O3b Networks (O3B)
Launch site: FRENCH GUIANA (FRGUI)
Your satellite tracking list
Your tracking list is empty




NASA's NSSDC Master Catalog

Two Line Element Set (TLE):
1 44113U 19020B   25189.82725326 -.00000016  00000-0  00000+0 0  9992
2 44113   0.0256  25.4683 0003276 109.8259 224.7319  5.00115255114488
Source of the keplerian elements: AFSPC